Weather reports worldwide

Advertisment
Granada/Aeropuerto, Spain (8419): temperature & dewpoint: 19.09.2020 02:00:00 - 25.09.2020 02:00:00 (CEST)Granada/Aeropuerto, Spain (8419): wind speed: 19.09.2020 02:00:00 - 25.09.2020 02:00:00 (CEST)Granada/Aeropuerto, Spain (8419): wind direction: 19.09.2020 02:00:00 - 25.09.2020 02:00:00 (CEST)Granada/Aeropuerto, Spain (8419): reduced air pressure: 19.09.2020 02:00:00 - 25.09.2020 02:00:00 (CEST)Granada/Aeropuerto, Spain (8419): visibility: 19.09.2020 02:00:00 - 25.09.2020 02:00:00 (CEST)
Date & Time tt [°C] td [°C] ff [km/h] ff [kn] dd ppp [hPa] vv [km]
25.09.2020 02:00:00 21,1 13,5 2 1 SSW 1018,9 21
25.09.2020 01:00:00 21,2 13,6 9 5 W 1018,9 20
25.09.2020 00:00:00 21,7 13,1 4 2 WSW 1018,8 17
24.09.2020 23:00:00 22,3 13,1 4 2 SW 1018,7 30
24.09.2020 22:00:00 23,4 12,4 0 0 N 1018,5 24
24.09.2020 21:00:00 24,6 11,5 8 4 W 1017,5 19
24.09.2020 20:00:00 25,7 12,2 11 6 W 1016,4 30
24.09.2020 19:00:00 27,9 10,6 16 9 NW 1015,3 28
24.09.2020 18:00:00 28,7 11,3 18 10 NNW 1015,0 30
24.09.2020 17:00:00 29,3 12,2 22 12 W 1015,0 30
24.09.2020 16:00:00 28,5 12,1 15 8 W 1014,7 15
24.09.2020 15:00:00 28,8 13,1 4 2 N 1014,9 30
24.09.2020 14:00:00 28,8 13,9 5 3 WSW 1015,6 30
24.09.2020 13:00:00 26,4 14,7 5 3 W 1016,3 29
24.09.2020 12:00:00 24,0 14,8 2 1 WNW 1016,9 19
24.09.2020 11:00:00 20,7 14,8 0 0 N 1017,2 25
24.09.2020 10:00:00 17,6 14,7 0 0 N 1017,5 23
24.09.2020 09:00:00 16,5 14,5 2 1 NNW 1017,6 20
24.09.2020 08:00:00 16,1 13,7 2 1 W 1017,2 20
24.09.2020 07:00:00 15,8 13,3 4 2 W 1016,8 27
24.09.2020 06:00:00 15,6 13,1 4 2 SW 1016,9 30
24.09.2020 05:00:00 16,0 12,9 0 0 N 1016,9 29
24.09.2020 04:00:00 15,8 12,9 0 0 N 1017,1 30
24.09.2020 03:00:00 17,0 13,1 0 0 N 1017,1 30
24.09.2020 02:00:00 18,1 13,3 2 1 S 1017,3 30
24.09.2020 01:00:00 18,5 13,6 2 1 NNW 1016,9 30
24.09.2020 00:00:00 19,9 13,8 4 2 SSW 1016,5 30
23.09.2020 23:00:00 20,3 13,7 4 2 WNW 1016,4 30
23.09.2020 22:00:00 20,4 13,6 8 4 S 1016,1 26
23.09.2020 21:00:00 21,6 13,2 11 6 W 1015,0 27
23.09.2020 20:00:00 23,0 13,5 18 10 WNW 1013,8 28
23.09.2020 19:00:00 25,6 13,4 21 11 W 1013,1 30
23.09.2020 18:00:00 26,9 13,2 16 9 W 1012,3 24
23.09.2020 17:00:00 27,6 12,4 21 11 W 1012,3 30
23.09.2020 16:00:00 27,7 12,2 21 11 WNW 1012,5 30
23.09.2020 15:00:00 27,8 11,6 21 11 WNW 1012,7 30
23.09.2020 14:00:00 27,2 11,4 18 10 W 1013,2 30
23.09.2020 13:00:00 24,8 10,4 9 5 WNW 1014,1 27
23.09.2020 12:00:00 21,9 12,2 4 2 W 1015,3 26
23.09.2020 11:00:00 18,4 11,7 4 2 NNW 1015,8 26
23.09.2020 10:00:00 15,9 11,9 0 0 N 1016,1 18
23.09.2020 09:00:00 15,5 11,3 0 0 N 1016,7 26
23.09.2020 08:00:00 14,5 10,5 0 0 N 1016,7 30
23.09.2020 07:00:00 13,9 10,3 4 2 W 1016,5 23
23.09.2020 06:00:00 14,1 10,1 0 0 N 1016,2 25
23.09.2020 05:00:00 15,4 10,4 0 0 N 1016,0 30
23.09.2020 04:00:00 16,9 10,5 4 2 N 1015,8 30
23.09.2020 03:00:00 18,0 10,4 0 0 N 1015,9 30
23.09.2020 02:00:00 20,0 10,1 2 1 SSW 1015,5 30
23.09.2020 01:00:00 20,4 9,6 0 0 N 1015,5 30
23.09.2020 00:00:00 21,0 9,3 0 0 N 1015,4 30
22.09.2020 23:00:00 21,8 8,9 4 2 W 1014,9 18
22.09.2020 22:00:00 22,6 9,1 13 7 WSW 1014,4 30
22.09.2020 21:00:00 22,9 8,6 13 7 SW 1013,5 30
22.09.2020 20:00:00 25,5 8,0 11 6 W 1012,3 20
22.09.2020 19:00:00 26,9 7,4 15 8 W 1011,8 30
22.09.2020 18:00:00 29,2 8,7 16 9 W 1011,3 30
22.09.2020 17:00:00 29,4 9,0 15 8 W 1011,5 20
22.09.2020 16:00:00 29,6 8,7 4 2 SW 1012,1 30
22.09.2020 15:00:00 28,1 8,4 5 3 NW 1013,3 18
22.09.2020 14:00:00 26,8 10,8 8 4 WNW 1014,2 18
22.09.2020 13:00:00 25,4 11,8 0 0 N 1015,1 15
22.09.2020 12:00:00 22,1 10,7 0 0 N 1016,2 19
22.09.2020 11:00:00 19,1 11,0 0 0 N 1016,8 15
22.09.2020 10:00:00 15,1 10,7 0 0 N 1017,7 15
22.09.2020 09:00:00 12,1 10,3 2 1 WSW 1018,4 12
22.09.2020 08:00:00 10,7 9,0 0 0 N 1018,4 18
22.09.2020 07:00:00 11,7 9,4 0 0 N 1017,9 25
22.09.2020 06:00:00 12,1 9,7 0 0 N 1017,8 26
22.09.2020 05:00:00 12,9 9,5 0 0 N 1017,8 30
22.09.2020 04:00:00 13,7 9,9 0 0 N 1017,8 30
22.09.2020 03:00:00 14,4 10,0 0 0 N 1018,1 30
22.09.2020 02:00:00 15,6 10,3 0 0 N 1018,0 30
22.09.2020 01:00:00 16,7 10,1 0 0 N 1018,0 30
22.09.2020 00:00:00 17,5 10,4 4 2 NW 1017,7 30
21.09.2020 23:00:00 19,9 9,7 11 6 SW 1016,8 30
21.09.2020 22:00:00 21,0 10,0 5 3 WSW 1016,3 30
21.09.2020 21:00:00 23,0 9,8 5 3 WSW 1015,4 30
21.09.2020 20:00:00 25,3 10,7 15 8 W 1014,6 30
21.09.2020 19:00:00 28,0 12,0 8 4 SW 1013,7 30
21.09.2020 18:00:00 28,4 12,3 11 6 WSW 1013,6 30
21.09.2020 17:00:00 27,9 12,6 8 4 WNW 1014,0 30
21.09.2020 16:00:00 27,6 13,5 8 4 W 1014,6 25
21.09.2020 15:00:00 25,4 13,6 4 2 W 1015,8 30
21.09.2020 14:00:00 23,8 13,0 2 1 NW 1016,8 30
21.09.2020 13:00:00 22,5 13,0 2 1 W 1017,8 20
21.09.2020 12:00:00 18,8 12,9 0 0 N 1018,9 10
21.09.2020 11:00:00 17,5 12,6 4 2 N 1019,0 20
21.09.2020 10:00:00 16,3 12,5 2 1 SSW 1019,3 18
21.09.2020 09:00:00 13,8 12,4 5 3 W 1019,7 15
21.09.2020 08:00:00 13,1 11,8 0 0 N 1018,9 15
21.09.2020 07:00:00 13,3 11,9 4 2 SW 1018,6 19
21.09.2020 06:00:00 13,7 11,8 0 0 N 1018,6 16
21.09.2020 05:00:00 14,0 12,0 4 2 W 1018,8 17
21.09.2020 04:00:00 15,0 12,5 0 0 N 1018,7 21
21.09.2020 03:00:00 14,9 12,3 2 1 NW 1019,0 20
21.09.2020 02:00:00 15,6 12,9 4 2 SW 1019,0 19
21.09.2020 01:00:00 15,9 12,3 0 0 N 1019,2 26
21.09.2020 00:00:00 17,6 12,5 8 4 S 1019,0 29
20.09.2020 23:00:00 18,2 12,9 9 5 SSW 1018,8 30
20.09.2020 22:00:00 19,8 12,9 5 3 SSW 1018,3 30
20.09.2020 21:00:00 20,5 13,1 4 2 W 1017,3 30
20.09.2020 20:00:00 22,1 12,9 9 5 NW 1016,7 25
20.09.2020 19:00:00 24,8 11,7 22 12 W 1015,5 30
20.09.2020 18:00:00 26,4 10,9 21 11 W 1014,7 24
20.09.2020 17:00:00 26,6 12,0 15 8 W 1014,9 30
20.09.2020 16:00:00 26,7 13,8 8 4 WSW 1015,5 26
20.09.2020 15:00:00 25,6 13,1 5 3 W 1016,6 30
20.09.2020 14:00:00 24,2 13,1 5 3 WSW 1017,6 30
20.09.2020 13:00:00 21,3 14,4 4 2 NW 1018,7 19
20.09.2020 12:00:00 19,3 14,1 0 0 N 1019,8 16
20.09.2020 11:00:00 17,0 13,9 0 0 N 1020,6 15
20.09.2020 10:00:00 15,2 13,0 2 1 NNW 1020,9 26
20.09.2020 09:00:00 13,8 12,7 4 2 NNW 1020,9 20
20.09.2020 08:00:00 14,1 13,5 4 2 NW 1020,2 12
20.09.2020 07:00:00 14,6 14,1 0 0 N 1019,9 16
20.09.2020 06:00:00 14,4 13,9 0 0 N 1020,1 13
20.09.2020 05:00:00 12,8 12,2 4 2 SSW 1020,6 17
20.09.2020 04:00:00 13,3 12,7 0 0 N 1020,6 21
20.09.2020 03:00:00 14,1 13,3 4 2 SW 1020,7 23
20.09.2020 02:00:00 14,5 13,5 4 2 SW 1020,8 21
20.09.2020 01:00:00 15,2 14,1 0 0 N 1020,7 26
20.09.2020 00:00:00 16,1 14,6 5 3 SW 1020,4 29
19.09.2020 23:00:00 16,9 14,9 4 2 SW 1020,1 30
19.09.2020 22:00:00 18,1 15,8 9 5 SSW 1019,1 30
19.09.2020 21:00:00 18,3 16,1 5 3 W 1018,5 30
19.09.2020 20:00:00 20,0 15,6 16 9 W 1017,7 30
19.09.2020 19:00:00 21,3 15,6 18 10 W 1017,0 30
19.09.2020 18:00:00 23,0 16,1 24 13 W 1016,0 30
19.09.2020 17:00:00 25,3 14,4 22 12 W 1015,2 30
19.09.2020 16:00:00 25,6 13,0 16 9 W 1015,0 30
19.09.2020 15:00:00 25,3 12,9 15 8 NW 1015,5 30
19.09.2020 14:00:00 24,5 13,0 9 5 N 1016,7 30
19.09.2020 13:00:00 23,5 11,8 5 3 W 1017,5 30
19.09.2020 12:00:00 22,1 12,9 2 1 SE 1018,2 22
19.09.2020 11:00:00 20,0 13,1 0 0 N 1018,6 25
19.09.2020 10:00:00 16,9 13,0 0 0 N 1019,0 18
19.09.2020 09:00:00 13,6 12,3 0 0 N 1019,5 20
19.09.2020 08:00:00 12,3 11,2 0 0 N 1019,2 25
19.09.2020 07:00:00 12,6 10,8 4 2 SSW 1018,7 30
19.09.2020 06:00:00 13,8 11,8 0 0 N 1018,2 30
19.09.2020 05:00:00 13,8 11,3 2 1 WNW 1018,2 30
19.09.2020 04:00:00 14,0 11,2 0 0 N 1018,2 30
19.09.2020 03:00:00 15,5 11,5 2 1 N 1017,9 30
19.09.2020 02:00:00 16,9 11,4 15 8 S 1017,5 30

tt = temperature
td = dewpoint
ff = wind speed
dd = wind direction
ppp = reduced air pressure
vv = visibility

Next stations